Retour au catalogue

FENGYUN 1D

ActifMétéoSSO
NORAD 27431·PAYLOAD·🇨🇳 China

Lancé May 15, 2002 depuis Taiyuan Satellite Launch Center

Loading…

Prochains Passages (prochaines 24 heures)

TLE

FraisSource: Space-Track

Époque: Sep 14, 2026, 09:40 UTC

1 27431U 02024B   26257.40307039 -.00000019  00000-0  14694-4 0  9992
2 27431  98.9431 307.2880 0015207 355.7592   4.3447 14.10234140252058

Suivez FENGYUN 1D en temps réel avec AllMySat

Download on the App Store